Weather History for Weaverville, CA

Change the Weather History Date:

Monday, February 11, 2013

  Actual Average (KRDD) Record (KRDD)
Temperature  
Mean Temperature 41 °F -  
Max Temperature 59 °F 59 °F 79 °F (1996)
Min Temperature 23 °F 39 °F 26 °F (1999)
Degree Days  
Heating Degree Days 24    
Cooling Degree Days 0    
Moisture  
Dew Point 27 °F    
Average Humidity 72    
Maximum Humidity 100    
Minimum Humidity 29    
Precipitation  
Precipitation 0.00 in 0.19 in 1.34 in (2000)
Month to date precipitation 2.20  
Year to date precipitation 8.16  
Since 1 July precipitation 21.92  
Sea Level Pressure  
Sea Level Pressure 30.21 in    
Wind  
Wind Speed 1 mph (East)    
Max Wind Speed 5 mph    
Max Gust Speed -    
Visibility 9 miles    
Events      
T = Trace of Precipitation, MM = Missing Value Source: NWS Daily Summary

Daily Weather History Graph

Daily Weather History Graph

Search for Another Location

Airport:

Trip Planner

Search our weather history database for the weather conditions in past years. The results will help you decide how hot, cold, wet, or windy it might be!

Date:

Astronomy

Feb. 11, 2013 Rise Set
Actual Time 7:10 AM PST 5:42 PM PST
Civil Twilight 6:42 AM PST 6:10 PM PST
Nautical Twilight 6:09 AM PST 6:42 PM PST
Astronomical Twilight 5:37 AM PST 7:14 PM PST
Moon 7:37 AM PST (2/11) 7:46 PM PST (2/11)
Length of Visible Light 11h 28m
Length of Day
10h 31m
Waxing Crescent, 3% of the Moon is Illuminated
Feb 11
Waxing Crescent
Feb 17
First Quarter
Feb 25
Full
Mar 4
Last Quarter
Mar 11
New

Hourly Weather History & Observations

Time (PST) Temp. Windchill Dew Point Humidity Pressure Visibility Wind Dir Wind Speed Gust Speed Precip Events Conditions
12:15 AM 28.4 °F - 24.8 °F 86% 30.17 in 7.0 mi Calm Calm - N/A   Clear
12:35 AM 28.4 °F - 24.8 °F 86% 30.17 in 7.0 mi Calm Calm - N/A   Clear
1:15 AM 28.4 °F - 24.8 °F 86% 30.18 in 7.0 mi Calm Calm - N/A   Clear
1:35 AM 26.6 °F 22.6 °F 24.8 °F 93% 30.18 in 8.0 mi NNW 3.5 mph - N/A   Clear
1:55 AM 26.6 °F - 24.8 °F 93% 30.18 in 8.0 mi Calm Calm - N/A   Clear
2:15 AM 26.6 °F - 24.8 °F 93% 30.19 in 10.0 mi Calm Calm - N/A   Clear
2:35 AM 26.6 °F - 24.8 °F 93% 30.19 in 10.0 mi Calm Calm - N/A   Clear
2:55 AM 26.6 °F - 24.8 °F 93% 30.19 in 10.0 mi Calm Calm - N/A   Clear
3:15 AM 26.6 °F - 24.8 °F 93% 30.19 in 10.0 mi Calm Calm - N/A   Clear
3:35 AM 26.6 °F - 24.8 °F 93% 30.18 in 10.0 mi Calm Calm - N/A   Clear
3:55 AM 26.6 °F - 24.8 °F 93% 30.19 in 10.0 mi Calm Calm - N/A   Clear
4:15 AM 24.8 °F - 23.0 °F 93% 30.19 in 10.0 mi Calm Calm - N/A   Clear
4:35 AM 24.8 °F - 23.0 °F 93% 30.19 in 10.0 mi Calm Calm - N/A   Clear
4:55 AM 24.8 °F - 23.0 °F 93% 30.19 in 10.0 mi Calm Calm - N/A   Clear
5:15 AM 24.8 °F - 23.0 °F 93% 30.19 in 10.0 mi Calm Calm - N/A   Clear
5:35 AM 24.8 °F - 23.0 °F 93% 30.20 in 8.0 mi Calm Calm - N/A   Clear
6:15 AM 24.8 °F - 23.0 °F 93% 30.20 in 8.0 mi Calm Calm - N/A   Clear
6:35 AM 24.8 °F - 23.0 °F 93% 30.21 in 10.0 mi Calm Calm - N/A   Clear
6:55 AM 24.8 °F - 23.0 °F 93% 30.21 in 10.0 mi Calm Calm - N/A   Clear
7:15 AM 23.0 °F - 21.2 °F 93% 30.23 in 5.0 mi Calm Calm - N/A   Clear
7:35 AM 23.0 °F - 23.0 °F 100% 30.24 in 9.0 mi Calm Calm - N/A   Clear
7:55 AM 24.8 °F - 23.0 °F 93% 30.24 in 9.0 mi Calm Calm - N/A   Clear
8:15 AM 24.8 °F - 23.0 °F 93% 30.25 in 9.0 mi Calm Calm - N/A   Clear
8:35 AM 26.6 °F - 24.8 °F 93% 30.26 in 10.0 mi Calm Calm - N/A   Clear
8:55 AM 28.4 °F - 24.8 °F 86% 30.26 in 10.0 mi Calm Calm - N/A   Clear
9:15 AM 32.0 °F 28.7 °F 26.6 °F 80% 30.26 in 10.0 mi SSW 3.5 mph - N/A   Clear
9:35 AM 32.0 °F - 26.6 °F 80% 30.25 in 10.0 mi Calm Calm - N/A   Clear
9:55 AM 33.8 °F - 26.6 °F 75% 30.25 in 10.0 mi Calm Calm - N/A   Clear
10:15 AM 37.4 °F - 26.6 °F 65% 30.25 in 10.0 mi Calm Calm - N/A   Clear
10:35 AM 39.2 °F 37.0 °F 28.4 °F 65% 30.24 in 10.0 mi SSW 3.5 mph - N/A   Clear
10:55 AM 41.0 °F - 28.4 °F 61% 30.23 in 10.0 mi Calm Calm - N/A   Clear
11:15 AM 42.8 °F 40.1 °F 28.4 °F 57% 30.23 in 10.0 mi SW 4.6 mph - N/A   Clear
11:35 AM 44.6 °F 43.1 °F 28.4 °F 53% 30.22 in 10.0 mi SSW 3.5 mph - N/A   Clear
11:55 AM 46.4 °F - 28.4 °F 50% 30.21 in 10.0 mi Calm Calm - N/A   Clear
12:15 PM 48.2 °F - 28.4 °F 46% 30.21 in 10.0 mi Calm Calm - N/A   Clear
12:35 PM 50.0 °F - 28.4 °F 43% 30.20 in 10.0 mi Calm Calm - N/A   Clear
12:55 PM 51.8 °F - 26.6 °F 38% 30.19 in 10.0 mi Calm Calm - N/A   Clear
1:15 PM 53.6 °F - 26.6 °F 35% 30.18 in 10.0 mi Calm Calm - N/A   Clear
1:35 PM 55.4 °F - 23.0 °F 29% 30.17 in 10.0 mi Calm Calm - N/A   Clear
1:55 PM 55.4 °F - 24.8 °F 31% 30.17 in 10.0 mi SSW 3.5 mph - N/A   Clear
2:55 PM 59.0 °F - 28.4 °F 31% 30.16 in 10.0 mi SSW 3.5 mph - N/A   Clear
3:15 PM 59.0 °F - 26.6 °F 29% 30.17 in 10.0 mi Calm Calm - N/A   Clear
3:35 PM 59.0 °F - 26.6 °F 29% 30.16 in 10.0 mi Calm Calm - N/A   Clear
3:55 PM 59.0 °F - 26.6 °F 29% 30.16 in 10.0 mi Calm Calm - N/A   Clear
4:15 PM 59.0 °F - 26.6 °F 29% 30.16 in 10.0 mi Calm Calm - N/A   Clear
4:35 PM 59.0 °F - 28.4 °F 31% 30.16 in 10.0 mi SW 3.5 mph - N/A   Clear
4:55 PM 59.0 °F - 30.2 °F 34% 30.16 in 10.0 mi Calm Calm - N/A   Clear
5:15 PM 55.4 °F - 30.2 °F 38% 30.16 in 10.0 mi Calm Calm - N/A   Clear
5:35 PM 51.8 °F - 30.2 °F 44% 30.17 in 10.0 mi NNE 3.5 mph - N/A   Clear
5:55 PM 48.2 °F - 32.0 °F 54% 30.17 in 10.0 mi Calm Calm - N/A   Clear
6:15 PM 44.6 °F - 32.0 °F 61% 30.18 in 10.0 mi Calm Calm - N/A   Clear
6:35 PM 42.8 °F - 32.0 °F 66% 30.19 in 10.0 mi Calm Calm - N/A   Clear
6:55 PM 41.0 °F 39.0 °F 32.0 °F 70% 30.20 in 10.0 mi NNE 3.5 mph - N/A   Clear
7:15 PM 39.2 °F 35.9 °F 32.0 °F 75% 30.20 in 9.0 mi NE 4.6 mph - N/A   Clear
7:35 PM 37.4 °F - 32.0 °F 81% 30.21 in 9.0 mi Calm Calm - N/A   Clear
7:55 PM 37.4 °F - 30.2 °F 75% 30.21 in 9.0 mi Calm Calm - N/A   Clear
8:15 PM 35.6 °F 32.8 °F 30.2 °F 81% 30.21 in 7.0 mi ENE 3.5 mph - N/A   Clear
8:35 PM 35.6 °F - 30.2 °F 81% 30.22 in 9.0 mi Calm Calm - N/A   Clear
8:55 PM 35.6 °F - 28.4 °F 75% 30.23 in 10.0 mi Calm Calm - N/A   Clear
9:15 PM 33.8 °F - 28.4 °F 81% 30.23 in 8.0 mi Calm Calm - N/A   Clear
9:35 PM 32.0 °F - 28.4 °F 87% 30.24 in 9.0 mi Calm Calm - N/A   Clear
9:55 PM 32.0 °F - 28.4 °F 87% 30.25 in 8.0 mi Calm Calm - N/A   Clear
10:15 PM 32.0 °F 28.7 °F 28.4 °F 87% 30.25 in 8.0 mi ENE 3.5 mph - N/A   Clear
10:35 PM 32.0 °F - 28.4 °F 87% 30.26 in 9.0 mi Calm Calm - N/A   Clear
10:55 PM 32.0 °F 28.7 °F 28.4 °F 87% 30.27 in 9.0 mi ENE 3.5 mph - N/A   Clear
11:15 PM 32.0 °F - 28.4 °F 87% 30.27 in 8.0 mi Calm Calm - N/A   Clear
11:35 PM 32.0 °F - 28.4 °F 87% 30.28 in 9.0 mi Calm Calm - N/A   Clear
11:55 PM 32.0 °F 28.7 °F 28.4 °F 87% 30.28 in 6.0 mi North 3.5 mph - N/A   Clear